Weather Roundup
Issued by NWS Chicago, IL

Home | Current Version | Previous Version | Graphics & Text | Print | Product List | Glossary On
Versions: 1 2 3 4 5 6 7 8 9 10 11 12 13 14 15 16 17 18 19 20 21 22 23 24 25 26 27 28 29 30 31 32 33 34 35 36 37 38 39 40 41 42 43 44 45 46 47 48 49 50
000
NZUS59 KLOT 241803
HRRLOT

CHICAGO AREA WEATHER ROUNDUP
NATIONAL WEATHER SERVICE CHICAGO/ROMEOVILLE IL
100 PM CDT TUE MAY 24 2016

NOTE: "FAIR" INDICATES FEW OR NO CLOUDS BELOW 12,000 FEET WITH NO
SIGNIFICANT WEATHER AND/OR OBSTRUCTIONS TO VISIBILITY.

* THESE STATIONS ARE NOT UNDER NWS QUALITY CONTROL. THEY ALSO MAY NOT
  REPORT WEATHER SUCH AS PRECIPITATION OR FOG.

ILZ005-006-012>014-019>023-241900-
NORTHEAST ILLINOIS

CITY           SKY/WX    TMP DP  RH WIND       PRES   REMARKS
OHARE          PTSUNNY   82  52  35 SW20      29.97F HX  81
6HR MIN TEMP:  61; 6HR MAX TEMP:  82;

MIDWAY         MOSUNNY   85  49  28 S15G26    29.98F HX  83
6HR MIN TEMP:  65; 6HR MAX TEMP:  85;

AURORA         SUNNY     84  56  38 S12       29.98F HX  83
6HR MIN TEMP:  59; 6HR MAX TEMP:  84;

LANSING*       SUNNY     83  48  29 SW18G24   29.99F HX  81
WAUKEGAN       SUNNY     82  57  42 SW14G25   29.96F HX  82
6HR MIN TEMP:  62; 6HR MAX TEMP:  83; 6HR PCP: TRACE;

DUPAGE AIRPORT SUNNY     82  54  37 SW17      29.98S HX  81
6HR MIN TEMP:  56; 6HR MAX TEMP:  82;

WHEELING       SUNNY     83  52  34 S10G20    29.98F HX  82
6HR MIN TEMP:  61; 6HR MAX TEMP:  83;

$$

WIZ051-052-058>065-066-070>072-241900-
SOUTHEAST WISCONSIN

CITY           SKY/WX    TMP DP  RH WIND       PRES   REMARKS
MILWAUKEE      PTSUNNY   83  58  42 SW15      29.95S HX  83
6HR MIN TEMP:  63; 6HR MAX TEMP:  83;

KENOSHA*       MOSUNNY   82  59  45 SW13G20   29.96F HX  82
RACINE*        SUNNY     83  56  39 S15       29.96F HX  82
WAUKESHA       MOSUNNY   79  55  44 S16       29.96S
$$

INZ001>003-010>013-019-020-241900-
NORTHWEST INDIANA

CITY           SKY/WX    TMP DP  RH WIND       PRES   REMARKS
GARY*          MOSUNNY   84  59  42 SW14      29.99F HX  84
MICHIGAN CITY* NOT AVBL
RENSSELAER*    NOT AVBL
VALPARAISO     SUNNY     84  49  29 S15G23    30.01F HX  82
$$

LMZ740>746-241900-
SOUTHERN LAKE MICHIGAN

STATION/POSITION TIME  SKY/WX   TEMP WIND        PRES    VSBY
                                AIR  DIR/SP/G
                 (UTC)          (F)  (DEG/KT/KT) (MB)    (MI)
HARRISON CRIB    1700            79  210/ 18/ 19   N/A
BURNHAM HARBOR   1800            82  190/ 10/ 17   N/A
CALUMET HARBOR   1700            80  190/  9/ 19 1015.0F
BURNS HARBOR     1700            79  220/ 15/ 21 1016.3F
MICHIGAN CITY    1700            74  190/  1/  5   N/A
$$

ABBREVIATIONS USED IN REMARKS
   TC - TEMPERATURE IN CELSIUS
  WCI - WIND CHILL INDEX
   HX - HEAT INDEX
  VSB - VISIBILITY
$$



USA.gov is the U.S. government's official web portal to all federal, state and local government web resources and services.